Time,TemperatureF,DewpointF,PressureIn,WindDirection,WindDirectionDegrees,WindSpeedMPH,WindSpeedGustMPH,Humidity,HourlyPrecipIn,Conditions,Clouds,dailyrainin,SoftwareType,DateUTC
2013-01-08 00:22:00,52.0,38.0,30.04,East,90,3.0,-999.0,58,0.00,,,-99.99,,2013-01-08 08:22:00,
2013-01-08 00:32:00,52.0,38.0,30.04,East,90,3.0,-999.0,58,0.00,,,-99.99,,2013-01-08 08:32:00,
2013-01-08 00:42:00,52.0,38.0,30.04,East,90,3.0,-999.0,58,0.00,,,-99.99,,2013-01-08 08:42:00,
2013-01-08 00:52:00,52.0,38.0,30.04,East,90,3.0,-999.0,58,0.00,,,-99.99,,2013-01-08 08:52:00,
2013-01-08 01:22:00,51.0,45.0,30.04,North,0,0.0,-999.0,80,0.00,,,-99.99,,2013-01-08 09:22:00,
2013-01-08 01:32:00,51.0,45.0,30.04,North,0,0.0,-999.0,80,0.00,,,-99.99,,2013-01-08 09:32:00,
2013-01-08 01:42:00,51.0,45.0,30.04,North,0,0.0,-999.0,80,0.00,,,-99.99,,2013-01-08 09:42:00,
2013-01-08 01:52:00,51.0,45.0,30.04,North,0,0.0,-999.0,80,0.00,,,-99.99,,2013-01-08 09:52:00,
2013-01-08 02:22:00,52.0,39.0,30.04,North,0,0.0,-999.0,60,0.00,,,-99.99,,2013-01-08 10:22:00,
2013-01-08 02:32:00,52.0,39.0,30.04,North,0,0.0,-999.0,60,0.00,,,-99.99,,2013-01-08 10:32:00,
2013-01-08 02:42:00,52.0,39.0,30.04,North,0,0.0,-999.0,60,0.00,,,-99.99,,2013-01-08 10:42:00,
2013-01-08 02:52:00,52.0,39.0,30.04,North,0,0.0,-999.0,60,0.00,,,-99.99,,2013-01-08 10:52:00,
2013-01-08 03:22:00,52.0,33.0,30.02,North,0,0.0,-999.0,48,0.00,,,-99.99,,2013-01-08 11:22:00,
2013-01-08 03:32:00,52.0,33.0,30.02,North,0,0.0,-999.0,48,0.00,,,-99.99,,2013-01-08 11:32:00,
2013-01-08 03:42:00,52.0,33.0,30.02,North,0,0.0,-999.0,48,0.00,,,-99.99,,2013-01-08 11:42:00,
2013-01-08 03:53:00,52.0,33.0,30.02,North,0,0.0,-999.0,48,0.00,,,-99.99,,2013-01-08 11:53:00,
2013-01-08 04:22:00,53.0,35.0,30.02,North,0,0.0,-999.0,51,0.00,,,-99.99,,2013-01-08 12:22:00,
2013-01-08 04:32:00,53.0,35.0,30.02,North,0,0.0,-999.0,51,0.00,,,-99.99,,2013-01-08 12:32:00,
2013-01-08 04:42:00,53.0,35.0,30.02,North,0,0.0,-999.0,51,0.00,,,-99.99,,2013-01-08 12:42:00,
2013-01-08 04:53:00,53.0,35.0,30.02,North,0,0.0,-999.0,51,0.00,,,-99.99,,2013-01-08 12:53:00,
2013-01-08 05:22:00,51.0,42.0,30.03,North,0,0.0,-999.0,71,0.00,,,-99.99,,2013-01-08 13:22:00,
2013-01-08 05:32:00,51.0,42.0,30.03,North,0,0.0,-999.0,71,0.00,,,-99.99,,2013-01-08 13:32:00,
2013-01-08 05:42:00,51.0,42.0,30.03,North,0,0.0,-999.0,71,0.00,,,-99.99,,2013-01-08 13:42:00,
2013-01-08 05:52:00,51.0,42.0,30.03,North,0,0.0,-999.0,71,0.00,,,-99.99,,2013-01-08 13:52:00,
2013-01-08 06:23:00,50.0,44.0,30.04,SW,230,1.0,-999.0,81,0.00,,,-99.99,,2013-01-08 14:23:00,
2013-01-08 06:33:00,50.0,44.0,30.04,SW,230,1.0,-999.0,81,0.00,,,-99.99,,2013-01-08 14:33:00,
2013-01-08 06:42:00,50.0,44.0,30.04,SW,230,1.0,-999.0,81,0.00,,,-99.99,,2013-01-08 14:42:00,
2013-01-08 06:53:00,50.0,44.0,30.04,SW,230,1.0,-999.0,81,0.00,,,-99.99,,2013-01-08 14:53:00,
2013-01-08 07:22:00,49.0,45.0,30.07,South,190,2.0,-999.0,87,0.00,,,-99.99,,2013-01-08 15:22:00,
2013-01-08 07:33:00,49.0,45.0,30.07,South,190,2.0,-999.0,87,0.00,,,-99.99,,2013-01-08 15:33:00,
2013-01-08 08:22:00,50.0,46.0,30.09,North,0,0.0,-999.0,86,0.00,,,-99.99,,2013-01-08 16:22:00,
2013-01-08 08:33:00,50.0,46.0,30.09,North,0,0.0,-999.0,86,0.00,,,-99.99,,2013-01-08 16:33:00,
2013-01-08 08:42:00,50.0,46.0,30.09,North,0,0.0,-999.0,86,0.00,,,-99.99,,2013-01-08 16:42:00,
2013-01-08 08:52:00,50.0,46.0,30.09,North,0,0.0,-999.0,86,0.00,,,-99.99,,2013-01-08 16:52:00,
2013-01-08 09:23:00,56.0,43.0,30.10,East,100,1.0,-999.0,62,0.00,,,-99.99,,2013-01-08 17:23:00,
2013-01-08 09:33:00,56.0,43.0,30.10,East,100,1.0,-999.0,62,0.00,,,-99.99,,2013-01-08 17:33:00,
2013-01-08 09:43:00,56.0,43.0,30.10,East,100,1.0,-999.0,62,0.00,,,-99.99,,2013-01-08 17:43:00,
2013-01-08 09:53:00,56.0,43.0,30.10,East,100,1.0,-999.0,62,0.00,,,-99.99,,2013-01-08 17:53:00,
2013-01-08 10:23:00,60.0,47.0,30.10,North,0,0.0,-999.0,61,0.00,,,-99.99,,2013-01-08 18:23:00,
2013-01-08 10:33:00,60.0,47.0,30.10,North,0,0.0,-999.0,61,0.00,,,-99.99,,2013-01-08 18:33:00,
2013-01-08 10:43:00,60.0,47.0,30.10,North,0,0.0,-999.0,61,0.00,,,-99.99,,2013-01-08 18:43:00,
2013-01-08 10:53:00,60.0,47.0,30.10,North,0,0.0,-999.0,61,0.00,,,-99.99,,2013-01-08 18:53:00,
2013-01-08 11:22:00,55.0,48.0,30.08,West,270,3.0,-999.0,76,0.00,,,-99.99,,2013-01-08 19:22:00,
2013-01-08 11:32:00,55.0,48.0,30.08,West,270,3.0,-999.0,76,0.00,,,-99.99,,2013-01-08 19:32:00,
2013-01-08 11:42:00,55.0,48.0,30.08,West,270,3.0,-999.0,76,0.00,,,-99.99,,2013-01-08 19:42:00,
2013-01-08 11:53:00,55.0,48.0,30.08,West,270,3.0,-999.0,76,0.00,,,-99.99,,2013-01-08 19:53:00,
2013-01-08 12:22:00,56.0,49.0,30.07,West,260,3.0,-999.0,77,0.00,,,-99.99,,2013-01-08 20:22:00,
2013-01-08 12:33:00,56.0,49.0,30.07,West,260,3.0,-999.0,77,0.00,,,-99.99,,2013-01-08 20:33:00,
2013-01-08 12:43:00,56.0,49.0,30.07,West,260,3.0,-999.0,77,0.00,,,-99.99,,2013-01-08 20:43:00,
2013-01-08 12:53:00,56.0,49.0,30.07,West,260,3.0,-999.0,77,0.00,,,-99.99,,2013-01-08 20:53:00,
2013-01-08 13:22:00,59.0,49.0,30.05,West,270,3.0,-999.0,69,0.00,,,-99.99,,2013-01-08 21:22:00,
2013-01-08 13:33:00,59.0,49.0,30.05,West,270,3.0,-999.0,69,0.00,,,-99.99,,2013-01-08 21:33:00,
2013-01-08 13:43:00,59.0,49.0,30.05,West,270,3.0,-999.0,69,0.00,,,-99.99,,2013-01-08 21:43:00,
2013-01-08 13:53:00,59.0,49.0,30.05,West,270,3.0,-999.0,69,0.00,,,-99.99,,2013-01-08 21:53:00,
2013-01-08 14:22:00,64.0,50.0,30.05,North,0,0.0,-999.0,61,0.00,,,-99.99,,2013-01-08 22:22:00,
2013-01-08 14:32:00,64.0,50.0,30.05,North,0,0.0,-999.0,61,0.00,,,-99.99,,2013-01-08 22:32:00,
2013-01-08 14:42:00,64.0,50.0,30.05,North,0,0.0,-999.0,61,0.00,,,-99.99,,2013-01-08 22:42:00,
2013-01-08 14:52:00,64.0,50.0,30.05,North,0,0.0,-999.0,61,0.00,,,-99.99,,2013-01-08 22:52:00,
2013-01-08 15:22:00,62.0,50.0,30.06,North,0,0.0,-999.0,65,0.00,,,-99.99,,2013-01-08 23:22:00,
2013-01-08 15:32:00,62.0,50.0,30.06,North,0,0.0,-999.0,65,0.00,,,-99.99,,2013-01-08 23:32:00,
2013-01-08 15:43:00,62.0,50.0,30.06,North,0,0.0,-999.0,65,0.00,,,-99.99,,2013-01-08 23:43:00,
2013-01-08 15:52:00,62.0,50.0,30.06,North,0,0.0,-999.0,65,0.00,,,-99.99,,2013-01-08 23:52:00,
2013-01-08 16:22:00,64.0,49.0,30.07,North,0,0.0,-999.0,59,0.00,,,-99.99,,2013-01-09 00:22:00,
2013-01-08 16:32:00,64.0,49.0,30.07,North,0,0.0,-999.0,59,0.00,,,-99.99,,2013-01-09 00:32:00,
2013-01-08 16:42:00,64.0,49.0,30.07,North,0,0.0,-999.0,59,0.00,,,-99.99,,2013-01-09 00:42:00,
2013-01-08 16:52:00,64.0,49.0,30.07,North,0,0.0,-999.0,59,0.00,,,-99.99,,2013-01-09 00:52:00,
2013-01-08 17:22:00,59.0,49.0,30.08,North,0,0.0,-999.0,69,0.00,,,-99.99,,2013-01-09 01:22:00,
2013-01-08 17:32:00,59.0,49.0,30.08,North,0,0.0,-999.0,69,0.00,,,-99.99,,2013-01-09 01:32:00,
2013-01-08 17:42:00,59.0,49.0,30.08,North,0,0.0,-999.0,69,0.00,,,-99.99,,2013-01-09 01:42:00,
2013-01-08 17:52:00,59.0,49.0,30.08,North,0,0.0,-999.0,69,0.00,,,-99.99,,2013-01-09 01:52:00,
2013-01-08 18:22:00,58.0,46.0,30.09,North,0,0.0,-999.0,64,0.00,,,-99.99,,2013-01-09 02:22:00,
2013-01-08 18:32:00,58.0,46.0,30.09,North,0,0.0,-999.0,64,0.00,,,-99.99,,2013-01-09 02:32:00,
2013-01-08 18:42:00,58.0,46.0,30.09,North,0,0.0,-999.0,64,0.00,,,-99.99,,2013-01-09 02:42:00,
2013-01-08 18:52:00,58.0,46.0,30.09,North,0,0.0,-999.0,64,0.00,,,-99.99,,2013-01-09 02:52:00,
2013-01-08 19:22:00,56.0,47.0,30.09,North,0,0.0,-999.0,72,0.00,,,-99.99,,2013-01-09 03:22:00,
2013-01-08 19:33:00,56.0,47.0,30.09,North,0,0.0,-999.0,72,0.00,,,-99.99,,2013-01-09 03:33:00,
2013-01-08 19:42:00,56.0,47.0,30.09,North,0,0.0,-999.0,72,0.00,,,-99.99,,2013-01-09 03:42:00,
2013-01-08 19:52:00,56.0,47.0,30.09,North,0,0.0,-999.0,72,0.00,,,-99.99,,2013-01-09 03:52:00,
2013-01-08 20:22:00,56.0,46.0,30.09,East,100,3.0,-999.0,70,0.00,,,-99.99,,2013-01-09 04:22:00,
2013-01-08 20:32:00,56.0,46.0,30.09,East,100,3.0,-999.0,70,0.00,,,-99.99,,2013-01-09 04:32:00,
2013-01-08 20:42:00,56.0,46.0,30.09,East,100,3.0,-999.0,70,0.00,,,-99.99,,2013-01-09 04:42:00,
2013-01-08 20:52:00,56.0,46.0,30.09,East,100,3.0,-999.0,70,0.00,,,-99.99,,2013-01-09 04:52:00,
2013-01-08 21:22:00,58.0,48.0,30.09,East,100,1.0,-999.0,69,0.00,,,-99.99,,2013-01-09 05:22:00,
2013-01-08 21:33:00,58.0,48.0,30.09,East,100,1.0,-999.0,69,0.00,,,-99.99,,2013-01-09 05:33:00,
2013-01-08 22:22:00,59.0,46.0,30.09,North,0,0.0,-999.0,61,0.00,,,-99.99,,2013-01-09 06:22:00,
2013-01-08 22:32:00,59.0,46.0,30.09,North,0,0.0,-999.0,61,0.00,,,-99.99,,2013-01-09 06:32:00,
2013-01-08 23:32:00,57.0,46.0,30.11,North,0,0.0,-999.0,66,0.00,,,-99.99,,2013-01-09 07:32:00,